DELTA 4 R/B, 41746

Orbit data source: Space-Track

DELTA 4 R/B, 41746 is space debris in GEO originally from a launch on Fri, 19 Aug 2016 UTC launched from the Air Force Eastern Test Range (AFETR). Debris objects in space refer to the collection of defunct objects orbiting the Earth. Examples of debris include non-operational satellites, rocket bodies, and fragments generated from explosions, collisions, or faulty payload assembly.

Not visible in the next 10 days
Identifier
41746, 2016-052C
Orbit
GEO
Country
Flag of USUS
Related business
Flag of USUnited Launch Alliance/Lockheed Martin (US)
Manufacturer
ULA Decatur
Mission
2))"
Bus & Motor
DCSS-4, RL10B-2
Mass
2,850 kg wet, 2,850 kg dry
Launch date (UTC)
2016-08-19 (9 years ago)
Launch vehicle
Unknown
Launch site
Air Force Eastern Test Range (AFETR)
Object type
Payload
Rocket body
Debris
Shape & HBR
Cyl + 1 Nozzle, Unknown HBR
Radar Cross Section
43.982 m²

Expand to show TLE details & history
Last TLE update: 2 days ago

TLE from 2 days ago
0 DELTA 4 R/B
1 41746U 16052C   25256.81171516 -.00000279  00000-0  00000-0 0  9995
2 41746   8.0548  60.5849 0004837 337.4684  22.6291  0.98994877 22948
Epoch: 2025-09-13T19:28Z
TLE epoch observation values (Epoch: 2025-09-13T19:28:52.189Z)
Latitude
-0.00001°
Longitude
135.42996°
Altitude
36,128.963 km
Speed
3.063 km/s
True Right ascension
04h 02m 44s
True Declination
0° 00' 00"
Sunlit
Object was in daylight at epoch
Visualization orbit readout
Latitude
Unknown
Longitude
Unknown
Altitude
Unknown
Speed
Unknown
Apparent Right ascension
Unknown
Apparent Declination
Unknown
Sunlit
N/A
Visualization observer readout
Local Sidereal Time
03:53:28
Azimuth
Unknown
Elevation
Unknown
Doppler factor
Unknown
Orbital elements
Apogee altitude
36,170.003 km
Perigee altitude
36,128.861 km
Semi-major axis
42,527.569 km
Eccentricity
0.00048
Inclination
8.0548°
RAAN
60.5849°
Arg. of periapsis
337.4684°
True anomaly
22.65044°
Mean anomaly
22.6291°
Eccentric anomaly
22.63977°
Mean motion
0.24748 °/min
Orbital period
1,454.67 mins
BSTAR
0
Loading maneuver chart data...
Computing Atmospheric mass density...
Loading historical data...
Loading historical data...
Loading historical data...
Loading historical data...
Loading historical data...
Loading historical data...
Loading historical data...
Other satellites on launch #52 in the year 2016 (2016-08-19 UTC)

Documentation

Showing up to 5 results
|